Tracking 29892 objects as of 21-Nov-2024
HD Live streaming from Space Station
objects crossing your sky now

STARLINK-31873

Track STARLINK-31873 now!
10-day predictions
STARLINK-31873 is classified as:


NORAD ID: 59790
Int'l Code: 2024-093J
Perigee: 450.4 km
Apogee: 452.0 km
Inclination: 43.0 °
Period: 93.5 minutes
Semi major axis: 6822 km
RCS: Unknown
Launch date: May 18, 2024
Source: United States (US)
Launch site: AIR FORCE EASTERN TEST RANGE (AFETR)
Your satellite tracking list
Your tracking list is empty




NASA's NSSDC Master Catalog

Two Line Element Set (TLE):
1 59790U 24093J   24325.57245617  .00002827  00000-0  74902-4 0  9996
2 59790  42.9989  17.8642 0001167 253.0694 107.0035 15.40698613 30052
Source of the keplerian elements: AFSPC